FW4301 Weather Reports


Display with metric or nautical units.
time (UTC)temp
F
wind
direction
speed
MPH
gust
MPH
rain 1hr
in
rain 24hr
in
rain mn
in
humidity
%
barometer
mb
20260905234610 99 0 0.0 0.0 0.00 0.00 0.00 31 1010.9
20260905234029 99 0 0.0 0.0 0.00 0.00 0.00 30 1010.8
20260905233532 100 0 0.0 0.0 0.00 0.00 0.00 29 1010.8
20260905233050 100 0 0.0 0.0 0.00 0.00 0.00 29 1010.8
20260905232530 100 0 0.0 0.0 0.00 0.00 0.00 30 1010.9
20260905232032 100 0 0.0 0.0 0.00 0.00 0.00 29 1010.9
20260905231557 101 0 0.0 0.0 0.00 0.00 0.00 29 1010.9
20260905231032 102 0 0.0 0.0 0.00 0.00 0.00 28 1010.9
20260905230529 103 0 0.0 0.0 0.00 0.00 0.00 26 1010.9
20260905230123 104 0 0.0 0.0 0.00 0.00 0.00 25 1010.9
20260905225533 106 0 0.0 0.0 0.00 0.00 0.00 24 1010.8
20260905225029 108 0 0.0 0.0 0.00 0.00 0.00 23 1010.7
20260905224549 109 0 0.0 0.0 0.00 0.00 0.00 21 1010.7
20260905224032 109 0 0.0 0.0 0.00 0.00 0.00 22 1010.6
20260905223529 109 0 0.0 0.0 0.00 0.00 0.00 22 1010.7
20260905223057 109 0 0.0 0.0 0.00 0.00 0.00 20 1010.6
20260905222532 109 0 0.0 0.0 0.00 0.00 0.00 20 1010.6
20260905222033 108 0 0.0 0.0 0.00 0.00 0.00 23 1010.7
20260905221554 108 0 0.0 0.0 0.00 0.00 0.00 23 1010.6
20260905221030 109 0 0.0 0.0 0.00 0.00 0.00 21 1010.7
20260905220529 109 0 0.0 0.0 0.00 0.00 0.00 23 1010.7
20260905220048 108 0 0.0 0.0 0.00 0.00 0.00 23 1010.8
20260905215529 107 0 0.0 0.0 0.00 0.00 0.00 24 1010.7
20260905215029 106 0 0.0 0.0 0.00 0.00 0.00 26 1010.8
20260905214553 105 0 0.0 0.0 0.00 0.00 0.00 27 1010.9
20260905214029 104 0 0.0 0.0 0.00 0.00 0.00 23 1010.9
20260905213531 103 0 0.0 0.0 0.00 0.00 0.00 25 1011.0
20260905213049 102 0 0.0 0.0 0.00 0.00 0.00 25 1011.1
20260905212530 102 0 0.0 0.0 0.00 0.00 0.00 27 1011.3
20260905212029 103 0 0.0 0.0 0.00 0.00 0.00 26 1011.3
20260905211604 104 0 0.0 0.0 0.00 0.00 0.00 24 1011.3
20260905211029 105 0 0.0 0.0 0.00 0.00 0.00 24 1011.4
20260905210529 105 0 0.0 0.0 0.00 0.00 0.00 25 1011.4
20260905210058 105 0 0.0 0.0 0.00 0.00 0.00 23 1011.4
20260905205529 105 0 0.0 0.0 0.00 0.00 0.00 26 1011.5
20260905205029 105 0 0.0 0.0 0.00 0.00 0.00 23 1011.6
20260905204551 105 0 0.0 0.0 0.00 0.00 0.00 25 1011.6
20260905204029 105 0 0.0 0.0 0.00 0.00 0.00 25 1011.7
20260905203529 104 0 0.0 0.0 0.00 0.00 0.00 27 1011.7
20260905203103 103 0 0.0 0.0 0.00 0.00 0.00 25 1011.9
20260905202531 102 0 0.0 0.0 0.00 0.00 0.00 28 1011.9
20260905202028 102 0 0.0 0.0 0.00 0.00 0.00 30 1011.9
20260905201559 102 0 0.0 0.0 0.00 0.00 0.00 28 1012.1
20260905201029 102 0 0.0 0.0 0.00 0.00 0.00 28 1012.2
20260905200530 102 0 0.0 0.0 0.00 0.00 0.00 29 1012.2
20260905200105 102 0 0.0 0.0 0.00 0.00 0.00 28 1012.2
20260905195625 103 0 0.0 0.0 0.00 0.00 0.00 29 1012.4
20260905195032 103 0 0.0 0.0 0.00 0.00 0.00 27 1012.4
20260905194555 105 0 0.0 0.0 0.00 0.00 0.00 24 1012.4
20260905194029 106 0 0.0 0.0 0.00 0.00 0.00 24 1012.5
20260905193529 107 0 0.0 0.0 0.00 0.00 0.00 24 1012.5
20260905193107 108 0 0.0 0.0 0.00 0.00 0.00 23 1012.6
20260905192531 109 0 0.0 0.0 0.00 0.00 0.00 22 1012.6
20260905192031 108 0 0.0 0.0 0.00 0.00 0.00 25 1012.8
20260905191559 108 0 0.0 0.0 0.00 0.00 0.00 26 1012.9
20260905191031 107 0 0.0 0.0 0.00 0.00 0.00 25 1013.0
20260905190529 107 0 0.0 0.0 0.00 0.00 0.00 28 1013.0
20260905190100 106 0 0.0 0.0 0.00 0.00 0.00 25 1013.1
20260905185529 107 0 0.0 0.0 0.00 0.00 0.00 24 1013.3
20260905185030 106 0 0.0 0.0 0.00 0.00 0.00 26 1013.3
20260905184602 105 0 0.0 0.0 0.00 0.00 0.00 30 1013.4
20260905184031 105 0 0.0 0.0 0.00 0.00 0.00 29 1013.5
20260905183529 105 0 0.0 0.0 0.00 0.00 0.00 28 1013.6
20260905183056 105 0 0.0 0.0 0.00 0.00 0.00 31 1013.6
20260905182532 104 0 0.0 0.0 0.00 0.00 0.00 27 1013.7
20260905182030 104 0 0.0 0.0 0.00 0.00 0.00 28 1013.8
20260905181559 103 0 0.0 0.0 0.00 0.00 0.00 28 1014.0
20260905181030 103 0 0.0 0.0 0.00 0.00 0.00 31 1014.1
20260905180530 102 0 0.0 0.0 0.00 0.00 0.00 31 1014.2
20260905180054 102 0 0.0 0.0 0.00 0.00 0.00 30 1014.3
20260905175530 101 0 0.0 0.0 0.00 0.00 0.00 31 1014.4
20260905175030 101 0 0.0 0.0 0.00 0.00 0.00 30 1014.4
20260905174551 101 0 0.0 0.0 0.00 0.00 0.00 33 1014.4
20260905174029 100 0 0.0 0.0 0.00 0.00 0.00 31 1014.6
20260905173530 99 0 0.0 0.0 0.00 0.00 0.00 35 1014.6
20260905173055 99 0 0.0 1.0 0.00 0.00 0.00 31 1014.6
20260905172529 99 0 0.0 1.0 0.00 0.00 0.00 32 1014.7
20260905172029 98 0 0.0 0.0 0.00 0.00 0.00 32 1014.7
20260905171608 98 0 0.0 0.0 0.00 0.00 0.00 36 1014.7
20260905171029 97 0 0.0 0.0 0.00 0.00 0.00 39 1014.8
20260905170531 96 0 0.0 0.0 0.00 0.00 0.00 37 1014.8
20260905170050 96 0 0.0 0.0 0.00 0.00 0.00 35 1014.9
20260905165530 96 0 0.0 0.0 0.00 0.00 0.00 34 1014.9
20260905165029 97 0 0.0 0.0 0.00 0.00 0.00 35 1014.9
20260905164559 96 0 0.0 1.0 0.00 0.00 0.00 35 1015.0
20260905164029 96 0 0.0 1.0 0.00 0.00 0.00 36 1015.0
20260905163530 96 0 0.0 0.0 0.00 0.00 0.00 38 1015.0
20260905163056 95 0 0.0 0.0 0.00 0.00 0.00 37 1015.1
20260905162529 95 0 0.0 0.0 0.00 0.00 0.00 39 1015.0
20260905162029 94 0 0.0 0.0 0.00 0.00 0.00 40 1015.0
20260905161552 93 0 0.0 0.0 0.00 0.00 0.00 44 1014.9
20260905161030 92 0 0.0 0.0 0.00 0.00 0.00 43 1014.9
20260905160529 91 0 0.0 0.0 0.00 0.00 0.00 45 1014.9
20260905160104 90 0 0.0 0.0 0.00 0.00 0.00 44 1014.9
20260905155530 90 0 0.0 0.0 0.00 0.00 0.00 46 1015.0
20260905155029 90 0 0.0 0.0 0.00 0.00 0.00 46 1014.9
20260905154605 89 0 0.0 0.0 0.00 0.00 0.00 48 1015.0
20260905154030 89 0 0.0 0.0 0.00 0.00 0.00 48 1014.8
20260905153528 88 0 0.0 0.0 0.00 0.00 0.00 48 1014.8
20260905153050 88 0 0.0 0.0 0.00 0.00 0.00 49 1015.0
20260905152532 88 0 0.0 0.0 0.00 0.00 0.00 49 1015.0
20260905152029 87 0 0.0 0.0 0.00 0.00 0.00 49 1014.9
20260905151601 87 0 0.0 0.0 0.00 0.00 0.00 50 1014.9
20260905151029 86 0 0.0 0.0 0.00 0.00 0.00 51 1015.0
20260905150529 86 0 0.0 0.0 0.00 0.00 0.00 51 1014.8
20260905150112 85 0 0.0 0.0 0.00 0.00 0.00 53 1014.8
20260905145534 85 0 0.0 0.0 0.00 0.00 0.00 54 1014.8
20260905145031 84 0 0.0 0.0 0.00 0.00 0.00 54 1014.9
20260905144605 84 0 0.0 0.0 0.00 0.00 0.00 55 1014.7
20260905144031 83 0 0.0 0.0 0.00 0.00 0.00 57 1014.7
20260905143529 83 0 0.0 0.0 0.00 0.00 0.00 58 1014.7
20260905143059 82 0 0.0 0.0 0.00 0.00 0.00 58 1014.7
20260905142530 82 0 0.0 0.0 0.00 0.00 0.00 59 1014.8
20260905142030 81 0 0.0 0.0 0.00 0.00 0.00 59 1014.8
20260905141553 81 0 0.0 0.0 0.00 0.00 0.00 60 1014.8
20260905141032 80 0 0.0 0.0 0.00 0.00 0.00 60 1014.7
20260905140532 80 0 0.0 0.0 0.00 0.00 0.00 61 1014.8
20260905140058 79 0 0.0 0.0 0.00 0.00 0.00 62 1014.6
20260905135528 79 0 0.0 0.0 0.00 0.00 0.00 62 1014.6
20260905135030 78 0 0.0 0.0 0.00 0.00 0.00 63 1014.5
20260905134548 77 0 0.0 0.0 0.00 0.00 0.00 63 1014.5
20260905134029 77 0 0.0 0.0 0.00 0.00 0.00 64 1014.4
20260905133529 76 0 0.0 0.0 0.00 0.00 0.00 65 1014.4
20260905133055 76 0 0.0 0.0 0.00 0.00 0.00 65 1014.4
20260905132528 75 0 0.0 0.0 0.00 0.00 0.00 66 1014.3
20260905132029 75 0 0.0 0.0 0.00 0.00 0.00 66 1014.3
20260905131552 75 0 0.0 0.0 0.00 0.00 0.00 67 1014.2
20260905131030 74 0 0.0 0.0 0.00 0.00 0.00 67 1014.2
20260905130532 74 0 0.0 0.0 0.00 0.00 0.00 67 1014.2
20260905130047 74 0 0.0 0.0 0.00 0.00 0.00 66 1014.2
20260905125529 73 0 0.0 0.0 0.00 0.00 0.00 66 1014.2
20260905125029 73 0 0.0 0.0 0.00 0.00 0.00 65 1014.3
20260905124546 73 0 0.0 0.0 0.00 0.00 0.00 65 1014.3
20260905124033 73 0 0.0 0.0 0.00 0.00 0.00 65 1014.2
20260905123530 73 0 0.0 0.0 0.00 0.00 0.00 65 1014.2
20260905123057 73 0 0.0 0.0 0.00 0.00 0.00 65 1014.3
20260905122531 73 0 0.0 0.0 0.00 0.00 0.00 65 1014.1
20260905122028 73 0 0.0 0.0 0.00 0.00 0.00 65 1014.0
20260905121552 73 0 0.0 0.0 0.00 0.00 0.00 64 1014.0
20260905121030 73 0 0.0 0.0 0.00 0.00 0.00 65 1014.1
20260905120532 73 0 0.0 0.0 0.00 0.00 0.00 65 1014.1
20260905120051 73 0 0.0 0.0 0.00 0.00 0.00 65 1014.1
20260905115529 73 0 0.0 0.0 0.00 0.00 0.00 65 1014.0
20260905115032 73 0 0.0 0.0 0.00 0.00 0.00 64 1014.0
20260905114556 73 0 0.0 0.0 0.00 0.00 0.00 64 1014.1
20260905114031 73 0 0.0 0.0 0.00 0.00 0.00 64 1014.1
20260905113531 73 0 0.0 0.0 0.00 0.00 0.00 64 1014.1
20260905113103 73 0 0.0 0.0 0.00 0.00 0.00 64 1014.1
20260905112532 74 0 0.0 0.0 0.00 0.00 0.00 64 1014.0
20260905112029 74 0 0.0 0.0 0.00 0.00 0.00 64 1013.9
20260905111551 74 0 0.0 0.0 0.00 0.00 0.00 64 1013.8
20260905111030 74 0 0.0 0.0 0.00 0.00 0.00 64 1013.8
20260905110530 74 0 0.0 0.0 0.00 0.00 0.00 65 1013.9
20260905110056 74 0 0.0 0.0 0.00 0.00 0.00 65 1013.9
20260905105529 74 0 0.0 0.0 0.00 0.00 0.00 65 1013.9
20260905105030 74 0 0.0 0.0 0.00 0.00 0.00 65 1013.9
20260905104554 74 0 0.0 0.0 0.00 0.00 0.00 65 1013.9
20260905104033 74 0 0.0 0.0 0.00 0.00 0.00 65 1013.9
20260905103531 74 0 0.0 0.0 0.00 0.00 0.00 64 1013.8
20260905103054 74 0 0.0 0.0 0.00 0.00 0.00 64 1013.9
20260905102529 74 0 0.0 0.0 0.00 0.00 0.00 64 1013.8
20260905102029 75 0 0.0 0.0 0.00 0.00 0.00 64 1013.9
20260905101550 75 0 0.0 0.0 0.00 0.00 0.00 64 1013.9
20260905101030 75 0 0.0 0.0 0.00 0.00 0.00 64 1013.9
20260905100529 75 0 0.0 0.0 0.00 0.00 0.00 64 1013.8
20260905100104 75 0 0.0 0.0 0.00 0.00 0.00 64 1013.9
20260905095529 75 0 0.0 0.0 0.00 0.00 0.00 64 1013.9
20260905095031 76 0 0.0 0.0 0.00 0.00 0.00 64 1013.9
20260905094556 76 0 0.0 0.0 0.00 0.00 0.00 64 1013.9
20260905094031 76 0 0.0 0.0 0.00 0.00 0.00 64 1013.8
20260905093531 76 0 0.0 0.0 0.00 0.00 0.00 64 1013.7
20260905093055 76 0 0.0 0.0 0.00 0.00 0.00 64 1013.6
20260905092531 76 0 0.0 0.0 0.00 0.00 0.00 64 1013.6
20260905092029 76 0 0.0 0.0 0.00 0.00 0.00 64 1013.6
20260905091546 76 0 0.0 0.0 0.00 0.00 0.00 64 1013.6
20260905091030 76 0 0.0 0.0 0.00 0.00 0.00 64 1013.6
20260905090530 76 0 0.0 0.0 0.00 0.00 0.00 63 1013.6
20260905090053 76 0 0.0 0.0 0.00 0.00 0.00 64 1013.5
20260905085531 76 0 0.0 0.0 0.00 0.00 0.00 63 1013.5
20260905085030 76 0 0.0 0.0 0.00 0.00 0.00 63 1013.5
20260905084550 77 0 0.0 0.0 0.00 0.00 0.00 63 1013.5
20260905084030 77 0 0.0 0.0 0.00 0.00 0.00 63 1013.6
20260905083530 77 0 0.0 0.0 0.00 0.00 0.00 63 1013.4
20260905083050 77 0 0.0 0.0 0.00 0.00 0.00 63 1013.5
20260905082529 77 0 0.0 0.0 0.00 0.00 0.00 63 1013.4
20260905082029 77 0 0.0 0.0 0.00 0.00 0.00 63 1013.5
20260905081557 77 0 0.0 0.0 0.00 0.00 0.00 63 1013.6
20260905081030 77 0 0.0 0.0 0.00 0.00 0.00 63 1013.6
20260905080529 77 0 0.0 0.0 0.00 0.00 0.00 63 1013.6
20260905080055 77 0 0.0 0.0 0.00 0.00 0.00 63 1013.6
20260905075529 77 0 0.0 0.0 0.00 0.00 0.00 63 1013.6
20260905075055 77 0 0.0 0.0 0.00 0.00 0.00 63 1013.5
20260905074552 77 0 0.0 0.0 0.00 0.00 0.00 62 1013.5
20260905074030 78 0 0.0 0.0 0.00 0.00 0.00 62 1013.5
20260905073529 78 0 0.0 0.0 0.00 0.00 0.00 62 1013.5
20260905073049 78 0 0.0 0.0 0.00 0.00 0.00 62 1013.5
20260905072530 78 0 0.0 0.0 0.00 0.00 0.00 62 1013.6
20260905072029 78 0 0.0 0.0 0.00 0.00 0.00 62 1013.6
20260905071549 78 0 0.0 0.0 0.00 0.00 0.00 61 1013.6
20260905071033 78 0 0.0 0.0 0.00 0.00 0.00 61 1013.7
20260905070529 78 0 0.0 0.0 0.00 0.00 0.00 61 1013.7
20260905070057 78 0 0.0 0.0 0.00 0.00 0.00 61 1013.8
20260905065528 79 0 0.0 0.0 0.00 0.00 0.00 60 1013.9
20260905065029 79 0 0.0 0.0 0.00 0.00 0.00 60 1013.9
20260905064554 79 0 0.0 0.0 0.00 0.00 0.00 60 1013.9
20260905064030 79 0 0.0 0.0 0.00 0.00 0.00 60 1014.0
20260905063529 79 0 0.0 0.0 0.00 0.00 0.00 59 1014.0
20260905063051 79 0 0.0 0.0 0.00 0.00 0.00 59 1014.0
20260905062529 80 0 0.0 0.0 0.00 0.00 0.00 59 1014.0
20260905062029 80 0 0.0 0.0 0.00 0.00 0.00 59 1014.0
20260905061609 80 0 0.0 0.0 0.00 0.00 0.00 58 1013.9
20260905061029 80 0 0.0 0.0 0.00 0.00 0.00 58 1014.0
20260905060530 80 0 0.0 0.0 0.00 0.00 0.00 58 1013.9
20260905060103 81 0 0.0 0.0 0.00 0.00 0.00 58 1013.9
20260905055531 81 0 0.0 0.0 0.00 0.00 0.00 57 1013.9
20260905055030 81 0 0.0 0.0 0.00 0.00 0.00 57 1013.8
20260905054555 81 0 0.0 0.0 0.00 0.00 0.00 57 1013.8
20260905054030 81 0 0.0 0.0 0.00 0.00 0.00 56 1013.8
20260905053530 82 0 0.0 0.0 0.00 0.00 0.00 56 1013.8
20260905053059 82 0 0.0 0.0 0.00 0.00 0.00 56 1013.8
20260905052530 82 0 0.0 0.0 0.00 0.00 0.00 56 1013.8
20260905052030 82 0 0.0 0.0 0.00 0.00 0.00 55 1013.8
20260905051546 82 0 0.0 0.0 0.00 0.00 0.00 55 1013.7
20260905051029 83 0 0.0 0.0 0.00 0.00 0.00 55 1013.6
20260905050530 83 0 0.0 0.0 0.00 0.00 0.00 54 1013.6
20260905050103 83 0 0.0 0.0 0.00 0.00 0.00 54 1013.5
20260905045530 83 0 0.0 0.0 0.00 0.00 0.00 54 1013.5
20260905045030 83 0 0.0 0.0 0.00 0.00 0.00 53 1013.4
20260905044556 83 0 0.0 0.0 0.00 0.00 0.00 53 1013.5
20260905044030 84 0 0.0 0.0 0.00 0.00 0.00 53 1013.6
20260905043529 84 0 0.0 0.0 0.00 0.00 0.00 53 1013.5
20260905043102 84 0 0.0 0.0 0.00 0.00 0.00 52 1013.5
20260905042529 84 0 0.0 0.0 0.00 0.00 0.00 52 1013.6
20260905042029 84 0 0.0 0.0 0.00 0.00 0.00 52 1013.5
20260905041547 85 0 0.0 0.0 0.00 0.00 0.00 51 1013.6
20260905041029 85 0 0.0 0.0 0.00 0.00 0.00 51 1013.6
20260905040532 85 0 0.0 0.0 0.00 0.00 0.00 51 1013.7
20260905040058 85 0 0.0 0.0 0.00 0.00 0.00 51 1013.7
20260905035530 85 0 0.0 0.0 0.00 0.00 0.00 50 1013.7
20260905035029 85 0 0.0 0.0 0.00 0.00 0.00 50 1013.7
20260905034551 85 0 0.0 0.0 0.00 0.00 0.00 50 1013.6
20260905034030 86 0 0.0 0.0 0.00 0.00 0.00 49 1013.6
20260905033532 86 0 0.0 0.0 0.00 0.00 0.00 49 1013.8
20260905033101 86 0 0.0 0.0 0.00 0.00 0.00 49 1013.6
20260905032529 86 0 0.0 0.0 0.00 0.00 0.00 48 1013.6
20260905032031 87 0 0.0 0.0 0.00 0.00 0.00 48 1013.6
20260905031555 87 0 0.0 0.0 0.00 0.00 0.00 48 1013.6
20260905031030 87 0 0.0 0.0 0.00 0.00 0.00 48 1013.6
20260905030529 87 0 0.0 0.0 0.00 0.00 0.00 47 1013.5
20260905025529 88 0 0.0 0.0 0.00 0.00 0.00 47 1013.5
20260905025029 88 0 0.0 0.0 0.00 0.00 0.00 46 1013.3
20260905024550 88 0 0.0 0.0 0.00 0.00 0.00 46 1013.2
20260905024029 88 0 0.0 0.0 0.00 0.00 0.00 46 1013.2
20260905023529 88 0 0.0 0.0 0.00 0.00 0.00 45 1013.2
20260905023058 88 0 0.0 0.0 0.00 0.00 0.00 45 1013.1
20260905022530 88 0 0.0 0.0 0.00 0.00 0.00 45 1013.1
20260905022029 89 0 0.0 0.0 0.00 0.00 0.00 44 1012.9
20260905021555 89 0 0.0 0.0 0.00 0.00 0.00 44 1012.8
20260905021030 89 0 0.0 0.0 0.00 0.00 0.00 44 1012.8
20260905020529 89 0 0.0 0.0 0.00 0.00 0.00 43 1012.5
20260905020106 89 0 0.0 0.0 0.00 0.00 0.00 43 1012.4
20260905015530 89 0 0.0 0.0 0.00 0.00 0.00 42 1012.3
20260905015032 89 0 0.0 0.0 0.00 0.00 0.00 42 1012.3
20260905014553 90 0 0.0 0.0 0.00 0.00 0.00 41 1012.2
20260905014029 90 0 0.0 0.0 0.00 0.00 0.00 41 1012.1
20260905013530 90 0 0.0 0.0 0.00 0.00 0.00 41 1012.1
20260905013054 91 0 0.0 0.0 0.00 0.00 0.00 40 1012.0
20260905012531 91 0 0.0 0.0 0.00 0.00 0.00 39 1012.0
20260905012028 91 0 0.0 0.0 0.00 0.00 0.00 39 1011.9
20260905011627 92 0 0.0 0.0 0.00 0.00 0.00 38 1011.8
20260905011031 92 0 0.0 0.0 0.00 0.00 0.00 38 1011.8
20260905010530 93 0 0.0 0.0 0.00 0.00 0.00 37 1011.8
20260905010051 93 0 0.0 0.0 0.00 0.00 0.00 37 1011.8
20260905005529 93 0 0.0 0.0 0.00 0.00 0.00 36 1011.7
20260905005030 94 0 0.0 0.0 0.00 0.00 0.00 36 1011.6
20260905004600 94 0 0.0 0.0 0.00 0.00 0.00 36 1011.6
20260905004029 94 0 0.0 0.0 0.00 0.00 0.00 35 1011.6
20260905003529 95 0 0.0 0.0 0.00 0.00 0.00 35 1011.6
20260905003056 95 0 0.0 0.0 0.00 0.00 0.00 34 1011.5
20260905002529 96 0 0.0 0.0 0.00 0.00 0.00 34 1011.4
20260905002030 96 0 0.0 0.0 0.00 0.00 0.00 34 1011.5
20260905001557 97 0 0.0 0.0 0.00 0.00 0.00 34 1011.5
20260905001030 97 0 0.0 0.0 0.00 0.00 0.00 33 1011.5
20260905000530 98 0 0.0 0.0 0.00 0.00 0.00 32 1011.4
20260905000052 98 0 0.0 0.0 0.00 0.00 0.00 31 1011.3
20260904235529 99 0 0.0 0.0 0.00 0.00 0.00 31 1011.3
20260904235031 100 0 0.0 0.0 0.00 0.00 0.00 30 1011.2